Time,TemperatureF,DewpointF,PressureIn,WindDirection,WindDirectionDegrees,WindSpeedMPH,WindSpeedGustMPH,Humidity,HourlyPrecipIn,Conditions,Clouds,dailyrainin,SoftwareType,DateUTC
2013-10-30 00:01:00,35.6,25.0,29.83,North,0,0.0,0.0,65,0.00,,,0.00,WUHU216HW,2013-10-30 07:01:00,
2013-10-30 00:06:00,35.6,25.0,29.83,North,0,0.0,0.0,65,0.00,,,0.00,WUHU216HW,2013-10-30 07:06:00,
2013-10-30 00:11:00,35.8,25.2,29.83,North,0,0.0,0.0,65,0.00,,,0.00,WUHU216HW,2013-10-30 07:11:00,
2013-10-30 00:16:00,36.0,25.4,29.83,North,0,0.0,0.0,65,0.00,,,0.00,WUHU216HW,2013-10-30 07:16:00,
2013-10-30 00:21:00,36.0,25.4,29.83,North,0,0.0,0.0,65,0.00,,,0.00,WUHU216HW,2013-10-30 07:21:00,
2013-10-30 00:26:00,36.0,25.4,29.83,North,0,0.0,0.0,65,0.00,,,0.00,WUHU216HW,2013-10-30 07:26:00,
2013-10-30 00:31:00,36.0,25.4,29.83,North,0,0.0,0.0,65,0.00,,,0.00,WUHU216HW,2013-10-30 07:31:00,
2013-10-30 00:36:00,36.2,25.6,29.83,North,0,0.0,0.0,65,0.00,,,0.00,WUHU216HW,2013-10-30 07:36:00,
2013-10-30 00:41:00,36.2,25.6,29.83,North,0,0.0,0.0,65,0.00,,,0.00,WUHU216HW,2013-10-30 07:41:00,
2013-10-30 00:46:00,36.2,25.6,29.83,North,0,0.0,0.0,65,0.00,,,0.00,WUHU216HW,2013-10-30 07:46:00,
2013-10-30 00:51:00,36.2,25.6,29.83,North,0,0.0,0.0,65,0.00,,,0.00,WUHU216HW,2013-10-30 07:51:00,
2013-10-30 00:56:00,36.2,25.2,29.83,North,0,0.0,0.0,64,0.00,,,0.00,WUHU216HW,2013-10-30 07:56:00,
2013-10-30 01:01:00,36.2,25.6,29.83,North,0,0.0,0.0,65,0.00,,,0.00,WUHU216HW,2013-10-30 08:01:00,
2013-10-30 01:06:00,36.2,25.2,29.83,North,0,0.0,0.0,64,0.00,,,0.00,WUHU216HW,2013-10-30 08:06:00,
2013-10-30 01:11:00,36.0,25.4,29.83,North,0,0.0,0.0,65,0.00,,,0.00,WUHU216HW,2013-10-30 08:11:00,
2013-10-30 01:16:00,35.8,24.9,29.83,North,0,0.0,0.0,64,0.00,,,0.00,WUHU216HW,2013-10-30 08:16:00,
2013-10-30 01:21:00,35.8,25.2,29.83,North,0,0.0,0.0,65,0.00,,,0.00,WUHU216HW,2013-10-30 08:21:00,
2013-10-30 01:26:00,35.6,25.0,29.83,North,0,0.0,0.0,65,0.00,,,0.00,WUHU216HW,2013-10-30 08:26:00,
2013-10-30 01:31:00,35.6,24.7,29.83,North,0,0.0,0.0,64,0.00,,,0.00,WUHU216HW,2013-10-30 08:31:00,
2013-10-30 01:36:00,35.6,25.0,29.83,North,0,0.0,0.0,65,0.00,,,0.00,WUHU216HW,2013-10-30 08:36:00,
2013-10-30 01:41:00,35.3,24.3,29.83,North,0,0.0,0.0,64,0.00,,,0.00,WUHU216HW,2013-10-30 08:41:00,
2013-10-30 01:46:00,35.3,24.7,29.83,North,0,0.0,0.0,65,0.00,,,0.00,WUHU216HW,2013-10-30 08:46:00,
2013-10-30 01:51:00,35.1,24.5,29.83,North,0,0.0,0.0,65,0.00,,,0.00,WUHU216HW,2013-10-30 08:51:00,
2013-10-30 01:56:00,35.3,24.7,29.83,North,0,0.0,0.0,65,0.00,,,0.00,WUHU216HW,2013-10-30 08:56:00,
2013-10-30 02:01:00,35.3,24.7,29.83,North,0,0.0,0.0,65,0.00,,,0.00,WUHU216HW,2013-10-30 09:01:00,
2013-10-30 02:06:00,34.9,24.3,29.83,North,0,0.0,0.0,65,0.00,,,0.00,WUHU216HW,2013-10-30 09:06:00,
2013-10-30 02:11:00,34.9,24.3,29.83,North,0,0.0,0.0,65,0.00,,,0.00,WUHU216HW,2013-10-30 09:11:00,
2013-10-30 02:16:00,34.9,24.3,29.83,North,0,0.0,0.0,65,0.00,,,0.00,WUHU216HW,2013-10-30 09:16:00,
2013-10-30 02:21:00,34.9,24.3,29.83,North,0,0.0,0.0,65,0.00,,,0.00,WUHU216HW,2013-10-30 09:21:00,
2013-10-30 02:26:00,34.9,24.3,29.83,North,0,0.0,0.0,65,0.00,,,0.00,WUHU216HW,2013-10-30 09:26:00,
2013-10-30 02:31:00,34.9,24.3,29.83,North,0,0.0,0.0,65,0.00,,,0.00,WUHU216HW,2013-10-30 09:31:00,
2013-10-30 02:36:00,34.9,24.3,29.83,North,0,0.0,0.0,65,0.00,,,0.00,WUHU216HW,2013-10-30 09:36:00,
2013-10-30 02:41:00,34.7,24.1,29.83,North,0,0.0,0.0,65,0.00,,,0.00,WUHU216HW,2013-10-30 09:41:00,
2013-10-30 02:46:00,34.6,23.9,29.83,North,0,0.0,0.0,65,0.00,,,0.00,WUHU216HW,2013-10-30 09:46:00,
2013-10-30 02:51:00,34.2,23.6,29.83,North,0,0.0,0.0,65,0.00,,,0.00,WUHU216HW,2013-10-30 09:51:00,
2013-10-30 02:56:00,34.0,23.4,29.82,North,0,0.0,0.0,65,0.00,,,0.00,WUHU216HW,2013-10-30 09:56:00,
2013-10-30 03:01:00,33.8,23.2,29.82,North,0,0.0,0.0,65,0.00,,,0.00,WUHU216HW,2013-10-30 10:01:00,
2013-10-30 03:06:00,33.7,23.0,29.82,North,0,0.0,0.0,65,0.00,,,0.00,WUHU216HW,2013-10-30 10:06:00,
2013-10-30 03:11:00,33.5,22.9,29.83,North,0,0.0,0.0,65,0.00,,,0.00,WUHU216HW,2013-10-30 10:11:00,
2013-10-30 03:16:00,33.5,22.9,29.83,North,0,0.0,0.0,65,0.00,,,0.00,WUHU216HW,2013-10-30 10:16:00,
2013-10-30 03:21:00,33.3,22.8,29.83,North,0,0.0,0.0,65,0.00,,,0.00,WUHU216HW,2013-10-30 10:21:00,
2013-10-30 03:26:00,33.3,22.8,29.83,North,0,0.0,0.0,65,0.00,,,0.00,WUHU216HW,2013-10-30 10:26:00,
2013-10-30 03:31:00,33.3,22.8,29.83,North,0,0.0,0.0,65,0.00,,,0.00,WUHU216HW,2013-10-30 10:31:00,
2013-10-30 03:36:00,33.3,22.8,29.82,North,0,0.0,0.0,65,0.00,,,0.00,WUHU216HW,2013-10-30 10:36:00,
2013-10-30 03:41:00,33.1,22.6,29.82,North,0,0.0,0.0,65,0.00,,,0.00,WUHU216HW,2013-10-30 10:41:00,
2013-10-30 03:46:00,32.9,22.4,29.82,North,0,0.0,0.0,65,0.00,,,0.00,WUHU216HW,2013-10-30 10:46:00,
2013-10-30 03:51:00,32.8,22.2,29.82,North,0,0.0,0.0,65,0.00,,,0.00,WUHU216HW,2013-10-30 10:51:00,
2013-10-30 03:56:00,32.8,22.2,29.82,North,0,0.0,0.0,65,0.00,,,0.00,WUHU216HW,2013-10-30 10:56:00,
2013-10-30 04:01:00,32.6,22.1,29.82,North,0,0.0,0.0,65,0.00,,,0.00,WUHU216HW,2013-10-30 11:01:00,
2013-10-30 04:06:00,32.0,21.6,29.82,North,0,0.0,0.0,65,0.00,,,0.00,WUHU216HW,2013-10-30 11:06:00,
2013-10-30 04:11:00,31.9,21.8,29.82,North,0,0.0,0.0,66,0.00,,,0.00,WUHU216HW,2013-10-30 11:11:00,
2013-10-30 04:16:00,31.7,21.6,29.82,North,0,0.0,0.0,66,0.00,,,0.00,WUHU216HW,2013-10-30 11:16:00,
2013-10-30 04:21:00,31.5,21.1,29.82,North,0,0.0,0.0,65,0.00,,,0.00,WUHU216HW,2013-10-30 11:21:00,
2013-10-30 04:26:00,31.3,20.9,29.82,North,0,0.0,0.0,65,0.00,,,0.00,WUHU216HW,2013-10-30 11:26:00,
2013-10-30 04:31:00,31.3,20.9,29.82,North,0,0.0,0.0,65,0.00,,,0.00,WUHU216HW,2013-10-30 11:31:00,
2013-10-30 04:36:00,31.3,20.9,29.82,North,0,0.0,0.0,65,0.00,,,0.00,WUHU216HW,2013-10-30 11:36:00,
2013-10-30 04:41:00,31.3,21.2,29.82,North,0,0.0,0.0,66,0.00,,,0.00,WUHU216HW,2013-10-30 11:41:00,
2013-10-30 04:46:00,31.0,20.9,29.82,North,0,0.0,0.0,66,0.00,,,0.00,WUHU216HW,2013-10-30 11:46:00,
2013-10-30 04:51:00,30.8,20.7,29.82,North,0,0.0,0.0,66,0.00,,,0.00,WUHU216HW,2013-10-30 11:51:00,
2013-10-30 04:56:00,30.6,20.2,29.82,North,0,0.0,0.0,65,0.00,,,0.00,WUHU216HW,2013-10-30 11:56:00,
2013-10-30 05:01:00,30.6,20.2,29.82,North,0,0.0,0.0,65,0.00,,,0.00,WUHU216HW,2013-10-30 12:01:00,
2013-10-30 05:06:00,30.6,20.2,29.82,North,0,0.0,0.0,65,0.00,,,0.00,WUHU216HW,2013-10-30 12:06:00,
2013-10-30 05:11:00,30.8,20.3,29.82,North,0,0.0,0.0,65,0.00,,,0.00,WUHU216HW,2013-10-30 12:11:00,
2013-10-30 05:16:00,31.0,20.5,29.82,North,0,0.0,0.0,65,0.00,,,0.00,WUHU216HW,2013-10-30 12:16:00,
2013-10-30 05:21:00,31.1,20.7,29.82,North,0,0.0,0.0,65,0.00,,,0.00,WUHU216HW,2013-10-30 12:21:00,
2013-10-30 05:26:00,31.3,20.9,29.82,North,0,0.0,0.0,65,0.00,,,0.00,WUHU216HW,2013-10-30 12:26:00,
2013-10-30 05:31:00,31.3,20.9,29.83,North,0,0.0,0.0,65,0.00,,,0.00,WUHU216HW,2013-10-30 12:31:00,
2013-10-30 05:36:00,31.7,21.2,29.83,North,0,0.0,0.0,65,0.00,,,0.00,WUHU216HW,2013-10-30 12:36:00,
2013-10-30 05:41:00,32.0,21.6,29.83,North,0,0.0,0.0,65,0.00,,,0.00,WUHU216HW,2013-10-30 12:41:00,
2013-10-30 05:46:00,32.0,21.6,29.83,North,0,0.0,0.0,65,0.00,,,0.00,WUHU216HW,2013-10-30 12:46:00,
2013-10-30 05:51:00,32.0,21.6,29.83,North,0,0.0,0.0,65,0.00,,,0.00,WUHU216HW,2013-10-30 12:51:00,
2013-10-30 05:56:00,32.0,21.2,29.83,North,0,0.0,0.0,64,0.00,,,0.00,WUHU216HW,2013-10-30 12:56:00,
2013-10-30 06:01:00,32.0,21.6,29.83,North,0,0.0,0.0,65,0.00,,,0.00,WUHU216HW,2013-10-30 13:01:00,
2013-10-30 06:06:00,31.7,21.2,29.83,North,0,0.0,0.0,65,0.00,,,0.00,WUHU216HW,2013-10-30 13:06:00,
2013-10-30 06:11:00,31.5,21.4,29.83,North,0,0.0,0.0,66,0.00,,,0.00,WUHU216HW,2013-10-30 13:11:00,
2013-10-30 06:16:00,31.1,21.1,29.83,North,0,0.0,0.0,66,0.00,,,0.00,WUHU216HW,2013-10-30 13:16:00,
2013-10-30 06:21:00,30.6,20.5,29.83,North,0,0.0,0.0,66,0.00,,,0.00,WUHU216HW,2013-10-30 13:21:00,
2013-10-30 06:26:00,30.6,20.5,29.83,North,0,0.0,0.0,66,0.00,,,0.00,WUHU216HW,2013-10-30 13:26:00,
2013-10-30 06:31:00,30.6,20.2,29.83,North,0,0.0,0.0,65,0.00,,,0.00,WUHU216HW,2013-10-30 13:31:00,
2013-10-30 06:36:00,30.8,20.3,29.83,North,0,0.0,0.0,65,0.00,,,0.00,WUHU216HW,2013-10-30 13:36:00,
2013-10-30 06:41:00,31.1,20.7,29.83,North,0,0.0,0.0,65,0.00,,,0.00,WUHU216HW,2013-10-30 13:41:00,
2013-10-30 06:46:00,31.5,20.3,29.83,North,0,0.0,0.0,63,0.00,,,0.00,WUHU216HW,2013-10-30 13:46:00,
2013-10-30 06:51:00,31.9,20.7,29.83,North,0,0.0,0.0,63,0.00,,,0.00,WUHU216HW,2013-10-30 13:51:00,
2013-10-30 06:56:00,32.0,21.2,29.84,North,0,0.0,0.0,64,0.00,,,0.00,WUHU216HW,2013-10-30 13:56:00,
2013-10-30 07:01:00,32.0,21.2,29.84,North,0,0.0,0.0,64,0.00,,,0.00,WUHU216HW,2013-10-30 14:01:00,
2013-10-30 07:06:00,32.0,21.6,29.84,North,0,0.0,0.0,65,0.00,,,0.00,WUHU216HW,2013-10-30 14:06:00,
2013-10-30 07:11:00,32.2,21.8,29.84,North,0,0.0,0.0,65,0.00,,,0.00,WUHU216HW,2013-10-30 14:11:00,
2013-10-30 07:16:00,32.4,21.6,29.83,North,0,0.0,0.0,64,0.00,,,0.00,WUHU216HW,2013-10-30 14:16:00,
2013-10-30 07:21:00,32.6,21.7,29.84,North,0,0.0,0.0,64,0.00,,,0.00,WUHU216HW,2013-10-30 14:21:00,
2013-10-30 07:26:00,32.8,21.9,29.84,North,0,0.0,0.0,64,0.00,,,0.00,WUHU216HW,2013-10-30 14:26:00,
2013-10-30 07:31:00,32.9,22.1,29.84,North,0,0.0,0.0,64,0.00,,,0.00,WUHU216HW,2013-10-30 14:31:00,
2013-10-30 07:36:00,33.3,22.4,29.84,North,0,0.0,0.0,64,0.00,,,0.00,WUHU216HW,2013-10-30 14:36:00,
2013-10-30 07:41:00,33.5,22.5,29.84,North,0,0.0,0.0,64,0.00,,,0.00,WUHU216HW,2013-10-30 14:41:00,
2013-10-30 07:46:00,33.5,22.9,29.85,North,0,0.0,0.0,65,0.00,,,0.00,WUHU216HW,2013-10-30 14:46:00,
2013-10-30 07:50:00,33.7,23.0,29.84,North,0,0.0,0.0,65,0.00,,,0.00,WUHU216HW,2013-10-30 14:50:00,
2013-10-30 07:55:00,33.8,23.2,29.85,North,0,0.0,0.0,65,0.00,,,0.00,WUHU216HW,2013-10-30 14:55:00,
2013-10-30 08:00:00,34.0,23.4,29.85,North,0,0.0,0.0,65,0.00,,,0.00,WUHU216HW,2013-10-30 15:00:00,
2013-10-30 08:06:00,34.2,23.6,29.85,North,0,0.0,0.0,65,0.00,,,0.00,WUHU216HW,2013-10-30 15:06:00,
2013-10-30 08:11:00,34.6,23.6,29.85,North,0,0.0,0.0,64,0.00,,,0.00,WUHU216HW,2013-10-30 15:11:00,
2013-10-30 08:16:00,34.7,23.8,29.85,North,0,0.0,0.0,64,0.00,,,0.00,WUHU216HW,2013-10-30 15:16:00,
2013-10-30 08:21:00,35.3,24.3,29.85,North,0,0.0,0.0,64,0.00,,,0.00,WUHU216HW,2013-10-30 15:21:00,
2013-10-30 08:25:00,35.5,24.8,29.85,North,0,0.0,0.0,65,0.00,,,0.00,WUHU216HW,2013-10-30 15:25:00,
2013-10-30 08:31:00,35.3,24.7,29.86,North,0,0.0,0.0,65,0.00,,,0.00,WUHU216HW,2013-10-30 15:31:00,
2013-10-30 08:36:00,34.7,24.1,29.86,North,0,0.0,0.0,65,0.00,,,0.00,WUHU216HW,2013-10-30 15:36:00,
2013-10-30 08:41:00,34.4,23.8,29.86,North,0,0.0,0.0,65,0.00,,,0.00,WUHU216HW,2013-10-30 15:41:00,
2013-10-30 08:46:00,34.2,23.6,29.86,North,0,0.0,0.0,65,0.00,,,0.00,WUHU216HW,2013-10-30 15:46:00,
2013-10-30 08:51:00,33.8,23.2,29.86,North,0,0.0,0.0,65,0.00,,,0.00,WUHU216HW,2013-10-30 15:51:00,
2013-10-30 08:56:00,33.7,23.0,29.86,North,0,0.0,0.0,65,0.00,,,0.00,WUHU216HW,2013-10-30 15:56:00,
2013-10-30 09:01:00,33.7,23.0,29.86,North,0,0.0,0.0,65,0.00,,,0.00,WUHU216HW,2013-10-30 16:01:00,
2013-10-30 09:06:00,34.2,22.9,29.86,North,0,0.0,0.0,63,0.00,,,0.00,WUHU216HW,2013-10-30 16:06:00,
2013-10-30 09:11:00,35.8,24.9,29.86,North,0,0.0,0.0,64,0.00,,,0.00,WUHU216HW,2013-10-30 16:11:00,
2013-10-30 09:16:00,37.4,26.7,29.86,North,0,0.0,0.0,65,0.00,,,0.00,WUHU216HW,2013-10-30 16:16:00,
2013-10-30 09:21:00,39.4,29.3,29.86,North,0,0.0,0.0,67,0.00,,,0.00,WUHU216HW,2013-10-30 16:21:00,
2013-10-30 09:26:00,40.9,31.2,29.86,North,0,0.0,0.0,68,0.00,,,0.00,WUHU216HW,2013-10-30 16:26:00,
2013-10-30 09:30:00,40.3,30.2,29.86,North,0,0.0,0.0,67,0.00,,,0.00,WUHU216HW,2013-10-30 16:30:00,
2013-10-30 09:35:00,40.7,30.2,29.86,North,0,0.0,0.0,66,0.00,,,0.00,WUHU216HW,2013-10-30 16:35:00,
2013-10-30 09:40:00,41.4,30.5,29.86,North,0,0.0,0.0,65,0.00,,,0.00,WUHU216HW,2013-10-30 16:40:00,
2013-10-30 09:45:00,42.1,31.6,29.86,North,0,0.0,0.0,66,0.02,,,0.02,WUHU216HW,2013-10-30 16:45:00,
2013-10-30 09:50:00,42.1,31.1,29.86,North,0,0.0,0.0,65,0.02,,,0.02,WUHU216HW,2013-10-30 16:50:00,
2013-10-30 09:55:00,42.3,30.6,29.86,North,0,0.0,0.0,63,0.03,,,0.03,WUHU216HW,2013-10-30 16:55:00,
2013-10-30 10:00:00,42.8,31.1,29.86,North,0,0.0,0.0,63,0.03,,,0.03,WUHU216HW,2013-10-30 17:00:00,
2013-10-30 10:05:00,43.0,30.9,29.86,North,0,0.0,0.0,62,0.03,,,0.03,WUHU216HW,2013-10-30 17:05:00,
2013-10-30 10:10:00,43.2,30.2,29.86,North,0,0.0,0.0,60,0.03,,,0.03,WUHU216HW,2013-10-30 17:10:00,
2013-10-30 10:15:00,42.5,28.7,29.87,North,0,0.0,0.0,58,0.03,,,0.03,WUHU216HW,2013-10-30 17:15:00,
2013-10-30 10:20:00,42.1,27.9,29.87,North,0,0.0,0.0,57,0.03,,,0.03,WUHU216HW,2013-10-30 17:20:00,
2013-10-30 10:25:00,41.4,27.3,29.87,North,0,0.0,0.0,57,0.03,,,0.03,WUHU216HW,2013-10-30 17:25:00,
2013-10-30 10:30:00,40.7,27.5,29.87,North,0,0.0,0.0,59,0.03,,,0.03,WUHU216HW,2013-10-30 17:30:00,
2013-10-30 10:35:00,40.7,27.9,29.87,North,0,0.0,0.0,60,0.03,,,0.03,WUHU216HW,2013-10-30 17:35:00,
2013-10-30 10:40:00,41.0,27.8,29.87,North,0,0.0,0.0,59,0.03,,,0.03,WUHU216HW,2013-10-30 17:40:00,
2013-10-30 10:45:00,41.6,27.9,29.87,North,0,0.0,0.0,58,0.01,,,0.03,WUHU216HW,2013-10-30 17:45:00,
2013-10-30 10:50:00,42.1,27.9,29.87,North,0,0.0,0.0,57,0.01,,,0.03,WUHU216HW,2013-10-30 17:50:00,
2013-10-30 10:55:00,42.5,27.8,29.87,North,0,0.0,0.0,56,0.00,,,0.03,WUHU216HW,2013-10-30 17:55:00,
2013-10-30 11:00:00,43.2,28.5,29.87,North,0,0.0,0.0,56,0.00,,,0.03,WUHU216HW,2013-10-30 18:00:00,
2013-10-30 11:05:00,43.0,28.4,29.87,North,0,0.0,0.0,56,0.00,,,0.03,WUHU216HW,2013-10-30 18:05:00,
2013-10-30 11:10:00,43.2,27.6,29.87,North,0,0.0,0.0,54,0.00,,,0.03,WUHU216HW,2013-10-30 18:10:00,
2013-10-30 11:15:00,43.7,27.7,29.87,North,0,0.0,0.0,53,0.00,,,0.03,WUHU216HW,2013-10-30 18:15:00,
2013-10-30 11:20:00,43.4,27.8,29.87,North,0,0.0,0.0,54,0.00,,,0.03,WUHU216HW,2013-10-30 18:20:00,
2013-10-30 11:25:00,42.8,27.3,29.87,North,0,0.0,0.0,54,0.00,,,0.03,WUHU216HW,2013-10-30 18:25:00,
2013-10-30 11:30:00,43.6,27.6,29.87,North,0,0.0,0.0,53,0.00,,,0.03,WUHU216HW,2013-10-30 18:30:00,
2013-10-30 11:35:00,43.7,27.3,29.87,North,0,0.0,0.0,52,0.00,,,0.03,WUHU216HW,2013-10-30 18:35:00,
2013-10-30 11:40:00,42.8,26.0,29.87,North,0,0.0,0.0,51,0.00,,,0.03,WUHU216HW,2013-10-30 18:40:00,
2013-10-30 11:45:00,43.2,25.9,29.87,North,0,0.0,0.0,50,0.00,,,0.03,WUHU216HW,2013-10-30 18:45:00,
2013-10-30 11:50:00,44.1,26.7,29.87,North,0,0.0,0.0,50,0.01,,,0.04,WUHU216HW,2013-10-30 18:50:00,
2013-10-30 11:55:00,43.4,25.5,29.87,North,0,0.0,0.0,49,0.01,,,0.04,WUHU216HW,2013-10-30 18:55:00,
2013-10-30 12:00:00,42.8,25.0,29.87,North,0,0.0,0.0,49,0.01,,,0.04,WUHU216HW,2013-10-30 19:00:00,
2013-10-30 12:05:00,42.3,24.5,29.87,North,0,0.0,0.0,49,0.01,,,0.04,WUHU216HW,2013-10-30 19:05:00,
2013-10-30 12:10:00,42.1,24.3,29.87,North,0,0.0,0.0,49,0.01,,,0.04,WUHU216HW,2013-10-30 19:10:00,
2013-10-30 12:15:00,42.1,24.3,29.87,North,0,0.0,0.0,49,0.01,,,0.04,WUHU216HW,2013-10-30 19:15:00,
2013-10-30 12:20:00,42.7,25.4,29.86,North,0,0.0,0.0,50,0.01,,,0.04,WUHU216HW,2013-10-30 19:20:00,
2013-10-30 12:25:00,43.0,25.2,29.86,North,0,0.0,0.0,49,0.01,,,0.04,WUHU216HW,2013-10-30 19:25:00,
2013-10-30 12:30:00,43.9,26.0,29.86,North,0,0.0,0.0,49,0.01,,,0.04,WUHU216HW,2013-10-30 19:30:00,
2013-10-30 12:35:00,44.3,25.2,29.86,North,0,0.0,0.0,47,0.01,,,0.04,WUHU216HW,2013-10-30 19:35:00,
2013-10-30 12:40:00,44.3,24.7,29.86,North,0,0.0,0.0,46,0.01,,,0.04,WUHU216HW,2013-10-30 19:40:00,
2013-10-30 12:45:00,44.1,24.6,29.86,North,0,0.0,0.0,46,0.01,,,0.04,WUHU216HW,2013-10-30 19:45:00,
2013-10-30 12:50:00,43.7,24.2,29.86,North,0,0.0,0.0,46,0.00,,,0.04,WUHU216HW,2013-10-30 19:50:00,
2013-10-30 12:55:00,43.6,24.0,29.86,North,0,0.0,0.0,46,0.00,,,0.04,WUHU216HW,2013-10-30 19:55:00,
2013-10-30 13:00:00,44.3,24.7,29.86,North,0,0.0,0.0,46,0.00,,,0.04,WUHU216HW,2013-10-30 20:00:00,
2013-10-30 13:05:00,44.3,24.7,29.86,North,0,0.0,0.0,46,0.00,,,0.04,WUHU216HW,2013-10-30 20:05:00,
2013-10-30 13:10:00,44.5,24.8,29.86,North,0,0.0,0.0,46,0.00,,,0.04,WUHU216HW,2013-10-30 20:10:00,
2013-10-30 13:15:00,45.0,24.9,29.86,North,0,0.0,0.0,45,0.00,,,0.04,WUHU216HW,2013-10-30 20:15:00,
2013-10-30 13:20:00,45.4,24.6,29.86,North,0,0.0,0.0,44,0.00,,,0.04,WUHU216HW,2013-10-30 20:20:00,
2013-10-30 13:25:00,45.7,24.4,29.86,North,0,0.0,0.0,43,0.00,,,0.04,WUHU216HW,2013-10-30 20:25:00,
2013-10-30 13:30:00,45.7,24.4,29.86,North,0,0.0,0.0,43,0.00,,,0.04,WUHU216HW,2013-10-30 20:30:00,
2013-10-30 13:35:00,46.4,25.0,29.86,North,0,0.0,0.0,43,0.00,,,0.04,WUHU216HW,2013-10-30 20:35:00,
2013-10-30 13:40:00,46.6,24.7,29.86,North,0,0.0,0.0,42,0.00,,,0.04,WUHU216HW,2013-10-30 20:40:00,
2013-10-30 13:45:00,46.4,24.5,29.86,North,0,0.0,0.0,42,0.00,,,0.04,WUHU216HW,2013-10-30 20:45:00,
2013-10-30 13:50:00,46.4,24.5,29.86,North,0,0.0,0.0,42,0.00,,,0.04,WUHU216HW,2013-10-30 20:50:00,
2013-10-30 13:55:00,46.8,24.3,29.86,North,0,0.0,0.0,41,0.00,,,0.04,WUHU216HW,2013-10-30 20:55:00,
2013-10-30 14:00:00,47.0,24.4,29.86,North,0,0.0,0.0,41,0.00,,,0.04,WUHU216HW,2013-10-30 21:00:00,
2013-10-30 14:05:00,47.5,25.5,29.86,North,0,0.0,0.0,42,0.00,,,0.04,WUHU216HW,2013-10-30 21:05:00,
2013-10-30 14:10:00,47.7,25.1,29.86,North,0,0.0,0.0,41,0.00,,,0.04,WUHU216HW,2013-10-30 21:10:00,
2013-10-30 14:15:00,48.1,25.4,29.86,North,0,0.0,0.0,41,0.00,,,0.04,WUHU216HW,2013-10-30 21:15:00,
2013-10-30 14:20:00,47.5,24.4,29.86,North,0,0.0,0.0,40,0.00,,,0.04,WUHU216HW,2013-10-30 21:20:00,
2013-10-30 14:25:00,47.0,23.9,29.86,North,0,0.0,0.0,40,0.00,,,0.04,WUHU216HW,2013-10-30 21:25:00,
2013-10-30 14:30:00,46.6,23.6,29.86,North,0,0.0,0.0,40,0.00,,,0.04,WUHU216HW,2013-10-30 21:30:00,
2013-10-30 14:35:00,47.3,24.2,29.86,North,0,0.0,0.0,40,0.00,,,0.04,WUHU216HW,2013-10-30 21:35:00,
2013-10-30 14:40:00,46.8,23.0,29.86,North,0,0.0,0.0,39,0.00,,,0.04,WUHU216HW,2013-10-30 21:40:00,
2013-10-30 14:45:00,46.3,23.2,29.86,North,0,0.0,0.0,40,0.00,,,0.04,WUHU216HW,2013-10-30 21:45:00,
2013-10-30 14:50:00,46.8,24.3,29.86,North,0,0.0,0.0,41,0.00,,,0.04,WUHU216HW,2013-10-30 21:50:00,
2013-10-30 14:55:00,47.5,24.4,29.86,North,0,0.0,0.0,40,0.00,,,0.04,WUHU216HW,2013-10-30 21:55:00,
2013-10-30 15:00:00,48.4,23.9,29.86,North,0,0.0,0.0,38,0.00,,,0.04,WUHU216HW,2013-10-30 22:00:00,
2013-10-30 15:05:00,49.3,24.7,29.86,North,0,0.0,0.0,38,0.00,,,0.04,WUHU216HW,2013-10-30 22:05:00,
2013-10-30 15:10:00,49.5,24.1,29.86,North,0,0.0,0.0,37,0.00,,,0.04,WUHU216HW,2013-10-30 22:10:00,
2013-10-30 15:15:00,49.9,24.4,29.86,North,0,0.0,0.0,37,0.00,,,0.04,WUHU216HW,2013-10-30 22:15:00,
2013-10-30 15:20:00,50.8,25.2,29.86,North,0,0.0,0.0,37,0.00,,,0.04,WUHU216HW,2013-10-30 22:20:00,
2013-10-30 15:25:00,51.5,25.2,29.86,North,0,0.0,0.0,36,0.00,,,0.04,WUHU216HW,2013-10-30 22:25:00,
2013-10-30 15:30:00,51.1,24.8,29.87,North,0,0.0,0.0,36,0.00,,,0.04,WUHU216HW,2013-10-30 22:30:00,
2013-10-30 15:35:00,51.1,24.8,29.86,North,0,0.0,0.0,36,0.00,,,0.04,WUHU216HW,2013-10-30 22:35:00,
2013-10-30 15:40:00,51.5,25.2,29.86,North,0,0.0,0.0,36,0.00,,,0.04,WUHU216HW,2013-10-30 22:40:00,
2013-10-30 15:45:00,51.5,25.2,29.86,North,0,0.0,0.0,36,0.00,,,0.04,WUHU216HW,2013-10-30 22:45:00,
2013-10-30 15:50:00,51.8,24.1,29.87,North,0,0.0,0.0,34,0.00,,,0.04,WUHU216HW,2013-10-30 22:50:00,
2013-10-30 15:55:00,52.0,24.3,29.87,North,0,0.0,0.0,34,0.00,,,0.04,WUHU216HW,2013-10-30 22:55:00,
2013-10-30 16:00:00,52.2,23.8,29.87,North,0,0.0,0.0,33,0.00,,,0.04,WUHU216HW,2013-10-30 23:00:00,
2013-10-30 16:05:00,51.1,22.9,29.87,North,0,0.0,0.0,33,0.00,,,0.04,WUHU216HW,2013-10-30 23:05:00,
2013-10-30 16:10:00,49.7,22.2,29.87,North,0,0.0,0.0,34,0.00,,,0.04,WUHU216HW,2013-10-30 23:10:00,
2013-10-30 16:15:00,49.1,23.1,29.87,North,0,0.0,0.0,36,0.00,,,0.04,WUHU216HW,2013-10-30 23:15:00,
2013-10-30 16:20:00,48.4,23.2,29.87,North,0,0.0,0.0,37,0.00,,,0.04,WUHU216HW,2013-10-30 23:20:00,
2013-10-30 16:25:00,47.3,22.9,29.87,North,0,0.0,0.0,38,0.00,,,0.04,WUHU216HW,2013-10-30 23:25:00,
2013-10-30 16:30:00,46.6,22.2,29.87,North,0,0.0,0.0,38,0.00,,,0.04,WUHU216HW,2013-10-30 23:30:00,
2013-10-30 16:35:00,46.3,21.9,29.87,North,0,0.0,0.0,38,0.00,,,0.04,WUHU216HW,2013-10-30 23:35:00,
2013-10-30 16:40:00,45.9,21.6,29.87,North,0,0.0,0.0,38,0.00,,,0.04,WUHU216HW,2013-10-30 23:40:00,
2013-10-30 16:45:00,45.7,22.1,29.87,North,0,0.0,0.0,39,0.00,,,0.04,WUHU216HW,2013-10-30 23:45:00,
2013-10-30 16:50:00,45.5,22.6,29.88,North,0,0.0,0.0,40,0.00,,,0.04,WUHU216HW,2013-10-30 23:50:00,
2013-10-30 16:55:00,45.2,22.2,29.87,North,0,0.0,0.0,40,0.00,,,0.04,WUHU216HW,2013-10-30 23:55:00,
2013-10-30 17:00:00,44.8,22.5,29.88,North,0,0.0,0.0,41,0.00,,,0.04,WUHU216HW,2013-10-31 00:00:00,
2013-10-30 17:05:00,44.5,22.7,29.88,North,0,0.0,0.0,42,0.00,,,0.04,WUHU216HW,2013-10-31 00:05:00,
2013-10-30 17:10:00,44.1,22.4,29.88,North,0,0.0,0.0,42,0.00,,,0.04,WUHU216HW,2013-10-31 00:10:00,
2013-10-30 17:15:00,43.9,22.8,29.88,North,0,0.0,0.0,43,0.00,,,0.04,WUHU216HW,2013-10-31 00:15:00,
2013-10-30 17:20:00,43.6,22.4,29.89,North,0,0.0,0.0,43,0.00,,,0.04,WUHU216HW,2013-10-31 00:20:00,
2013-10-30 17:25:00,43.2,22.7,29.88,North,0,0.0,0.0,44,0.00,,,0.04,WUHU216HW,2013-10-31 00:25:00,
2013-10-30 17:30:00,42.8,22.3,29.89,North,0,0.0,0.0,44,0.00,,,0.04,WUHU216HW,2013-10-31 00:30:00,
2013-10-30 17:35:00,42.7,22.7,29.89,North,0,0.0,0.0,45,0.00,,,0.04,WUHU216HW,2013-10-31 00:35:00,
2013-10-30 17:40:00,42.3,22.3,29.89,North,0,0.0,0.0,45,0.00,,,0.04,WUHU216HW,2013-10-31 00:40:00,
2013-10-30 17:45:00,42.1,22.1,29.89,North,0,0.0,0.0,45,0.00,,,0.04,WUHU216HW,2013-10-31 00:45:00,
2013-10-30 17:50:00,41.6,22.2,29.89,North,0,0.0,0.0,46,0.00,,,0.04,WUHU216HW,2013-10-31 00:50:00,
2013-10-30 17:55:00,41.2,21.9,29.89,North,0,0.0,0.0,46,0.00,,,0.04,WUHU216HW,2013-10-31 00:55:00,
2013-10-30 18:00:00,41.0,22.2,29.89,North,0,0.0,0.0,47,0.00,,,0.04,WUHU216HW,2013-10-31 01:00:00,
2013-10-30 18:05:00,40.7,21.9,29.89,North,0,0.0,0.0,47,0.00,,,0.04,WUHU216HW,2013-10-31 01:05:00,
2013-10-30 18:10:00,40.3,22.1,29.89,North,0,0.0,0.0,48,0.00,,,0.04,WUHU216HW,2013-10-31 01:10:00,
2013-10-30 18:15:00,40.0,21.8,29.90,North,0,0.0,0.0,48,0.00,,,0.04,WUHU216HW,2013-10-31 01:15:00,
2013-10-30 18:20:00,39.6,22.0,29.90,North,0,0.0,0.0,49,0.00,,,0.04,WUHU216HW,2013-10-31 01:20:00,
2013-10-30 18:25:00,39.2,21.1,29.90,North,0,0.0,0.0,48,0.00,,,0.04,WUHU216HW,2013-10-31 01:25:00,
2013-10-30 18:30:00,39.1,21.4,29.90,North,0,0.0,0.0,49,0.00,,,0.04,WUHU216HW,2013-10-31 01:30:00,
2013-10-30 18:35:00,38.5,21.0,29.90,North,0,0.0,0.0,49,0.00,,,0.04,WUHU216HW,2013-10-31 01:35:00,
2013-10-30 18:40:00,37.8,20.9,29.90,North,0,0.0,0.0,50,0.00,,,0.04,WUHU216HW,2013-10-31 01:40:00,
2013-10-30 18:45:00,37.1,20.2,29.90,North,0,0.0,0.0,50,0.00,,,0.04,WUHU216HW,2013-10-31 01:45:00,
2013-10-30 18:50:00,36.2,20.3,29.90,North,0,0.0,0.0,52,0.00,,,0.04,WUHU216HW,2013-10-31 01:50:00,
2013-10-30 18:55:00,35.3,19.8,29.90,North,0,0.0,0.0,53,0.00,,,0.04,WUHU216HW,2013-10-31 01:55:00,
2013-10-30 19:00:00,34.7,20.2,29.90,North,0,0.0,0.0,55,0.00,,,0.04,WUHU216HW,2013-10-31 02:00:00,
2013-10-30 19:05:00,34.0,19.9,29.91,North,0,0.0,0.0,56,0.00,,,0.04,WUHU216HW,2013-10-31 02:05:00,
2013-10-30 19:09:00,33.1,19.1,29.90,North,0,0.0,0.0,56,0.00,,,0.04,WUHU216HW,2013-10-31 02:09:00,
2013-10-30 19:15:00,32.8,19.6,29.91,North,0,0.0,0.0,58,0.00,,,0.04,WUHU216HW,2013-10-31 02:15:00,
2013-10-30 19:20:00,32.6,19.9,29.91,North,0,0.0,0.0,59,0.00,,,0.04,WUHU216HW,2013-10-31 02:20:00,
2013-10-30 19:25:00,32.4,20.2,29.91,North,0,0.0,0.0,60,0.00,,,0.04,WUHU216HW,2013-10-31 02:25:00,
2013-10-30 19:30:00,32.0,19.8,29.91,North,0,0.0,0.0,60,0.00,,,0.04,WUHU216HW,2013-10-31 02:30:00,
2013-10-30 19:34:00,31.7,19.8,29.91,North,0,0.0,0.0,61,0.00,,,0.04,WUHU216HW,2013-10-31 02:34:00,
2013-10-30 19:40:00,31.3,19.8,29.91,North,0,0.0,0.0,62,0.00,,,0.04,WUHU216HW,2013-10-31 02:40:00,
2013-10-30 19:44:00,31.0,19.4,29.91,North,0,0.0,0.0,62,0.00,,,0.04,WUHU216HW,2013-10-31 02:44:00,
2013-10-30 19:49:00,30.6,19.1,29.91,North,0,0.0,0.0,62,0.00,,,0.04,WUHU216HW,2013-10-31 02:49:00,
2013-10-30 19:55:00,30.4,18.9,29.91,North,0,0.0,0.0,62,0.00,,,0.04,WUHU216HW,2013-10-31 02:55:00,
2013-10-30 19:59:00,30.1,18.5,29.91,North,0,0.0,0.0,62,0.00,,,0.04,WUHU216HW,2013-10-31 02:59:00,
2013-10-30 20:00:00,29.9,18.4,29.91,North,0,0.0,0.0,62,0.00,,,0.04,WUHU216HW,2013-10-31 03:00:00,
2013-10-30 20:05:00,29.7,18.6,29.91,North,0,0.0,0.0,63,0.00,,,0.04,WUHU216HW,2013-10-31 03:05:00,
2013-10-30 20:10:00,29.9,19.1,29.91,North,0,0.0,0.0,64,0.00,,,0.04,WUHU216HW,2013-10-31 03:10:00,
2013-10-30 20:15:00,29.9,19.1,29.91,North,0,0.0,0.0,64,0.00,,,0.04,WUHU216HW,2013-10-31 03:15:00,
2013-10-30 20:20:00,30.1,19.3,29.91,North,0,0.0,0.0,64,0.00,,,0.04,WUHU216HW,2013-10-31 03:20:00,
2013-10-30 20:25:00,30.1,19.3,29.91,North,0,0.0,0.0,64,0.00,,,0.04,WUHU216HW,2013-10-31 03:25:00,
2013-10-30 20:30:00,30.1,19.3,29.91,North,0,0.0,0.0,64,0.00,,,0.04,WUHU216HW,2013-10-31 03:30:00,
2013-10-30 20:35:00,30.1,19.3,29.91,North,0,0.0,0.0,64,0.00,,,0.04,WUHU216HW,2013-10-31 03:35:00,
2013-10-30 20:40:00,30.6,19.8,29.92,North,0,0.0,0.0,64,0.00,,,0.04,WUHU216HW,2013-10-31 03:40:00,
2013-10-30 20:45:00,31.9,21.1,29.92,North,0,0.0,0.0,64,0.00,,,0.04,WUHU216HW,2013-10-31 03:45:00,
2013-10-30 20:50:00,32.9,22.1,29.92,North,0,0.0,0.0,64,0.00,,,0.04,WUHU216HW,2013-10-31 03:50:00,
2013-10-30 20:55:00,33.7,22.7,29.92,North,0,0.0,0.0,64,0.00,,,0.04,WUHU216HW,2013-10-31 03:55:00,
2013-10-30 21:00:00,34.0,22.7,29.92,North,0,0.0,0.0,63,0.00,,,0.04,WUHU216HW,2013-10-31 04:00:00,
2013-10-30 21:01:00,34.0,22.7,29.92,North,0,0.0,0.0,63,0.00,,,0.04,WUHU216HW,2013-10-31 04:01:00,
2013-10-30 21:06:00,34.0,22.7,29.92,North,0,0.0,0.0,63,0.00,,,0.04,WUHU216HW,2013-10-31 04:06:00,
2013-10-30 21:11:00,34.2,22.5,29.93,North,0,0.0,0.0,62,0.00,,,0.04,WUHU216HW,2013-10-31 04:11:00,
2013-10-30 21:16:00,34.4,22.7,29.93,North,0,0.0,0.0,62,0.00,,,0.04,WUHU216HW,2013-10-31 04:16:00,
2013-10-30 21:21:00,34.6,22.9,29.93,North,0,0.0,0.0,62,0.00,,,0.04,WUHU216HW,2013-10-31 04:21:00,
2013-10-30 21:26:00,34.9,23.2,29.93,North,0,0.0,0.0,62,0.00,,,0.04,WUHU216HW,2013-10-31 04:26:00,
2013-10-30 21:31:00,35.3,23.2,29.93,North,0,0.0,0.0,61,0.00,,,0.04,WUHU216HW,2013-10-31 04:31:00,
2013-10-30 21:36:00,35.5,23.4,29.93,North,0,0.0,0.0,61,0.00,,,0.04,WUHU216HW,2013-10-31 04:36:00,
2013-10-30 21:41:00,35.6,23.6,29.93,North,0,0.0,0.0,61,0.00,,,0.04,WUHU216HW,2013-10-31 04:41:00,
2013-10-30 21:46:00,35.6,23.2,29.93,North,0,0.0,0.0,60,0.00,,,0.04,WUHU216HW,2013-10-31 04:46:00,
2013-10-30 21:51:00,35.6,23.2,29.94,North,0,0.0,0.0,60,0.00,,,0.04,WUHU216HW,2013-10-31 04:51:00,
2013-10-30 21:56:00,35.8,23.4,29.94,North,0,0.0,0.0,60,0.00,,,0.04,WUHU216HW,2013-10-31 04:56:00,
2013-10-30 22:01:00,36.0,23.6,29.94,North,0,0.0,0.0,60,0.00,,,0.04,WUHU216HW,2013-10-31 05:01:00,
2013-10-30 22:06:00,35.8,23.4,29.94,North,0,0.0,0.0,60,0.00,,,0.04,WUHU216HW,2013-10-31 05:06:00,
2013-10-30 22:11:00,35.6,23.2,29.94,North,0,0.0,0.0,60,0.00,,,0.04,WUHU216HW,2013-10-31 05:11:00,
2013-10-30 22:16:00,35.3,22.9,29.94,North,0,0.0,0.0,60,0.00,,,0.04,WUHU216HW,2013-10-31 05:16:00,
2013-10-30 22:21:00,35.1,22.7,29.94,North,0,0.0,0.0,60,0.00,,,0.04,WUHU216HW,2013-10-31 05:21:00,
2013-10-30 22:26:00,34.7,22.3,29.94,North,0,0.0,0.0,60,0.00,,,0.04,WUHU216HW,2013-10-31 05:26:00,
2013-10-30 22:31:00,34.6,22.1,29.94,North,0,0.0,0.0,60,0.00,,,0.04,WUHU216HW,2013-10-31 05:31:00,
2013-10-30 22:36:00,34.2,21.8,29.94,North,0,0.0,0.0,60,0.00,,,0.04,WUHU216HW,2013-10-31 05:36:00,
2013-10-30 22:41:00,33.7,21.2,29.94,North,0,0.0,0.0,60,0.00,,,0.04,WUHU216HW,2013-10-31 05:41:00,
2013-10-30 22:46:00,32.9,20.6,29.94,North,0,0.0,0.0,60,0.00,,,0.04,WUHU216HW,2013-10-31 05:46:00,
2013-10-30 22:51:00,32.6,20.6,29.94,North,0,0.0,0.0,61,0.00,,,0.04,WUHU216HW,2013-10-31 05:51:00,
2013-10-30 22:56:00,32.2,20.4,29.94,North,0,0.0,0.0,61,0.00,,,0.04,WUHU216HW,2013-10-31 05:56:00,
2013-10-30 23:01:00,32.0,20.5,29.94,North,0,0.0,0.0,62,0.00,,,0.04,WUHU216HW,2013-10-31 06:01:00,
2013-10-30 23:06:00,32.0,20.5,29.94,North,0,0.0,0.0,62,0.00,,,0.04,WUHU216HW,2013-10-31 06:06:00,
2013-10-30 23:11:00,31.9,20.3,29.94,North,0,0.0,0.0,62,0.00,,,0.04,WUHU216HW,2013-10-31 06:11:00,
2013-10-30 23:16:00,31.5,20.3,29.94,North,0,0.0,0.0,63,0.00,,,0.04,WUHU216HW,2013-10-31 06:16:00,
2013-10-30 23:21:00,31.3,20.2,29.94,North,0,0.0,0.0,63,0.00,,,0.04,WUHU216HW,2013-10-31 06:21:00,
2013-10-30 23:26:00,31.3,20.2,29.94,North,0,0.0,0.0,63,0.00,,,0.04,WUHU216HW,2013-10-31 06:26:00,
2013-10-30 23:31:00,31.5,20.3,29.94,North,0,0.0,0.0,63,0.00,,,0.04,WUHU216HW,2013-10-31 06:31:00,
2013-10-30 23:36:00,31.3,20.5,29.94,North,0,0.0,0.0,64,0.00,,,0.04,WUHU216HW,2013-10-31 06:36:00,
2013-10-30 23:41:00,31.3,20.5,29.94,North,0,0.0,0.0,64,0.00,,,0.04,WUHU216HW,2013-10-31 06:41:00,
2013-10-30 23:46:00,31.3,20.5,29.94,North,0,0.0,0.0,64,0.00,,,0.04,WUHU216HW,2013-10-31 06:46:00,
2013-10-30 23:51:00,31.3,20.9,29.94,North,0,0.0,0.0,65,0.00,,,0.04,WUHU216HW,2013-10-31 06:51:00,
2013-10-30 23:56:00,31.1,20.7,29.94,North,0,0.0,0.0,65,0.00,,,0.04,WUHU216HW,2013-10-31 06:56:00,